Hourly Data Report for October 14, 2016

All times are specified in Local Standard Time (LST). Add 1 hour to adjust for Daylight Saving Time where and when it is observed.

CHARLOTTETOWN A
PRINCE EDWARD ISLAND

46°17'21.000" N
63°07'09.000" W
48.50 m
8300301
71706
YYG

Download Data

Hourly Data (October 2016)
Hourly Data Report for October 14, 2016
Temp Definition
°C
Dew Point Temp Definition
°C
Rel Hum Definition
%
Wind Dir Definition
10's deg

Wind Spd Definition
km/h
Visibility Definition
km
Stn Press Definition
kPa
Hmdx Definition


Wind Chill Definition


Weather Definition


TIME
00:00 Legend Double Dagger 14.2 13.6 96 17 13 24.1 100.85     LegendNANA
01:00 Legend Double Dagger 14.0 13.5 97 16 14 24.1 100.79     LegendNANA
02:00 Legend Double Dagger 13.8 13.3 97 16 12 24.1 100.72     Mostly Cloudy
03:00 Legend Double Dagger 13.7 13.1 96 19 12 24.1 100.70     LegendNANA
04:00 Legend Double Dagger 13.9 13.3 96 18 10 24.1 100.71     LegendNANA
05:00 Legend Double Dagger 14.0 13.1 94 23 9 24.1 100.73     Cloudy
06:00 Legend Double Dagger 13.9 13.0 94 25 12 24.1 100.78     LegendNANA
07:00 Legend Double Dagger 13.4 12.3 93 27 10 16.1 100.83     Rain Showers
08:00 Legend Double Dagger 9.5 8.4 93 32 22 9.7 101.00     Rain Showers
09:00 Legend Double Dagger 8.6 6.4 86 32 32 19.3 101.12     LegendNANA
10:00 Legend Double Dagger 8.8 5.6 80 31 23 24.1 101.22     LegendNANA
11:00 Legend Double Dagger 8.6 4.4 75 33 24 24.1 101.34     Cloudy
12:00 Legend Double Dagger 8.7 4.2 73 32 25 24.1 101.35     LegendNANA
13:00 Legend Double Dagger 8.6 3.1 68 33 30 24.1 101.40     LegendNANA
14:00 Legend Double Dagger 9.3 2.9 64 32 28 24.1 101.45     Mostly Cloudy
15:00 Legend Double Dagger 8.9 2.0 62 33 29 24.1 101.50     LegendNANA
16:00 Legend Double Dagger 7.9 1.1 62 35 19 24.1 101.60     LegendNANA
17:00 Legend Double Dagger 7.3 0.5 62 34 15 24.1 101.66     Mostly Cloudy
18:00 Legend Double Dagger 7.2 0.7 63 33 14 24.1 101.69     LegendNANA
19:00 Legend Double Dagger 7.3 -0.2 59 33 18 24.1 101.77     LegendNANA
20:00 Legend Double Dagger 7.8 -0.4 56 35 18 24.1 101.82     Cloudy
21:00 Legend Double Dagger 7.2 0.9 64 35 16 24.1 101.90     LegendNANA
22:00 Legend Double Dagger 7.3 -0.4 58 36 14 24.1 101.93     LegendNANA
23:00 Legend Double Dagger 7.0 -0.9 57 1 21 24.1 101.94     Cloudy

Notes on Data Quality.

Legend

  • E = Estimated
  • M = Missing
  • NA = Not Available
  • ‡ = Partner data that is not subject to review by the National Climate Archives
Date modified: